Theta_e
358 356 354 352 350 349 349 350 350 351 352 350 350 350 349 354 366 373 377 371 355 349 352 352 352 352 350 352 355 357 357 357 357 357 355 353 354 358 358 357 358 357 356 355 351 349 347 345 341 338 334 331 327 323 321 321 322 320 319 317 316 316 316 317 324 329 327 326 330 335 337 337 338 339
359 357 355 354 351 349 349 348 348 348 351 351 349 351 348 348 355 361 368 372 360 351 353 352 352 355 353 353 355 356 357 358 357 356 355 354 355 357 358 359 359 358 357 356 354 350 348 347 345 342 338 335 330 325 322 322 322 320 319 318 316 316 316 317 322 328 327 328 333 336 337 338 339 339
359 359 357 355 353 352 351 350 351 350 351 352 349 350 350 350 352 353 358 364 359 352 355 353 349 352 352 350 352 353 356 355 355 355 355 356 356 357 359 360 360 360 358 357 356 352 349 348 347 346 343 339 334 329 325 322 322 321 319 318 316 316 316 316 321 327 327 328 333 337 338 339 339 339
359 359 357 355 354 353 352 351 352 353 353 353 350 349 351 351 353 352 353 358 356 351 354 356 352 349 350 349 351 353 352 352 354 356 357 357 356 356 359 359 360 360 359 358 357 354 350 348 348 348 346 344 340 335 330 324 321 321 320 318 316 315 316 316 319 326 328 328 332 336 338 339 339 339
360 359 357 356 355 355 354 352 352 352 353 354 353 350 350 351 351 350 350 355 355 350 350 353 352 351 352 352 351 350 350 353 355 356 357 357 355 356 358 359 360 360 360 358 358 355 352 350 349 348 347 346 344 340 336 330 323 321 321 319 317 315 316 316 317 324 329 328 330 334 337 338 338 338
360 360 358 358 358 357 356 354 353 352 352 354 354 352 351 352 352 352 352 353 355 353 350 349 347 349 354 355 354 354 355 356 356 356 356 355 356 358 359 359 361 361 360 359 358 356 353 352 351 350 349 347 346 343 341 337 329 323 321 320 318 316 315 316 316 320 327 329 330 331 335 337 338 338
359 358 358 358 359 360 359 357 355 353 352 353 354 354 353 352 351 351 351 352 353 355 354 351 348 349 353 354 356 356 354 354 354 355 356 356 357 359 357 357 359 360 359 359 359 357 354 353 353 352 350 349 347 345 344 343 336 327 322 320 318 316 315 316 316 317 323 328 330 330 332 334 336 337
358 358 357 358 359 360 360 360 358 356 354 352 353 354 354 353 352 351 350 351 353 354 354 352 352 354 355 353 355 356 353 351 351 353 356 358 359 358 358 359 359 359 359 359 359 357 355 355 354 353 352 350 349 347 346 344 340 333 325 321 319 318 315 315 316 316 319 324 328 330 332 333 334 335
356 357 357 356 357 358 359 359 359 358 357 354 353 353 352 352 352 352 351 351 351 353 353 353 354 355 355 355 357 359 358 355 354 356 359 359 358 357 358 360 360 359 360 360 359 358 356 355 355 354 353 351 350 349 348 345 342 338 332 323 320 319 316 315 316 316 317 319 323 326 330 333 334 334
353 355 356 355 356 356 356 357 357 357 356 355 355 354 353 352 352 352 352 351 350 351 352 353 354 355 355 357 358 358 358 358 359 360 360 359 358 356 356 359 360 360 361 360 360 360 358 355 354 355 354 352 350 349 349 347 342 341 338 328 321 320 318 316 316 316 316 317 319 320 323 326 328 328
354 354 354 354 354 354 354 355 356 356 355 355 355 355 355 353 352 352 352 352 352 352 352 352 353 354 355 357 357 357 359 361 361 360 361 360 358 355 356 359 361 361 362 362 361 360 359 356 355 355 354 353 351 349 350 349 343 342 343 335 324 320 319 317 316 316 315 316 317 318 319 320 321 322
353 353 353 353 353 353 353 353 353 354 354 355 354 354 355 354 353 353 352 353 353 354 356 356 356 357 357 358 359 360 362 361 359 357 356 357 355 352 354 359 362 363 362 361 360 359 359 357 356 356 355 353 353 350 349 350 346 343 344 340 329 322 320 318 316 317 316 315 316 316 318 318 319 320
350 350 351 351 351 351 350 350 350 349 350 352 353 352 354 354 354 353 353 353 353 353 356 357 358 360 360 360 361 360 360 358 355 353 352 355 356 354 355 359 361 361 359 359 360 359 359 359 358 356 356 355 354 352 350 351 349 344 343 344 336 325 320 319 317 317 316 315 315 316 317 318 318 319
351 349 349 349 349 349 349 349 349 348 348 349 349 349 351 353 354 354 353 354 354 353 354 355 356 358 359 358 358 357 356 354 353 354 355 356 358 359 360 360 359 358 358 359 358 357 357 358 357 356 356 357 356 354 353 352 351 346 343 345 342 329 322 320 319 318 317 316 315 316 317 317 318 318
349 349 349 349 349 348 348 347 347 348 348 348 348 348 349 350 352 353 354 355 355 355 356 356 356 357 357 356 356 356 354 353 353 355 355 354 354 356 358 360 358 356 355 354 353 352 353 356 357 357 357 358 357 357 357 355 352 348 344 345 345 334 323 321 320 318 318 317 315 315 317 317 318 318
348 348 348 348 348 348 347 346 345 345 345 345 346 347 348 349 349 351 351 352 354 355 357 358 358 358 358 358 357 357 356 355 355 355 354 352 351 350 352 355 354 348 345 348 351 350 351 354 358 358 357 356 356 357 359 357 354 350 345 344 346 339 327 321 321 320 319 318 316 315 316 318 318 318
347 347 347 347 346 346 346 345 343 343 342 342 343 345 347 348 349 349 349 349 350 351 354 357 358 357 357 358 357 355 355 356 356 356 355 353 351 350 349 349 347 342 342 350 355 355 355 357 359 359 356 355 356 356 357 358 356 352 346 344 345 341 329 322 321 321 319 319 318 315 315 317 319 320
344 344 344 345 344 343 343 343 341 340 340 340 341 343 346 348 348 348 349 348 349 349 351 353 354 353 354 356 354 353 354 355 356 355 355 354 352 351 350 348 345 343 345 352 358 359 357 354 356 357 354 354 356 355 356 358 357 354 347 344 345 343 332 323 321 321 320 319 318 316 315 317 319 322
342 342 341 342 341 341 340 340 340 340 340 340 340 342 343 345 346 347 347 347 347 348 348 349 349 348 349 351 351 351 353 355 356 356 356 356 355 352 352 351 349 347 348 351 358 360 354 348 351 353 351 352 354 354 356 357 357 354 348 344 345 344 335 325 322 322 321 320 318 316 315 317 320 324
344 343 343 342 341 341 341 341 341 342 342 343 343 344 344 344 345 345 346 346 345 346 346 346 347 347 347 348 348 348 349 351 352 354 355 356 355 354 354 353 352 351 350 351 355 357 353 348 350 352 351 354 355 355 356 357 355 352 348 344 345 345 338 328 323 322 321 320 320 316 314 317 321 324
346 345 344 344 344 344 344 345 345 346 347 347 347 347 347 347 349 347 347 346 346 346 347 347 348 350 350 350 349 349 348 347 347 351 354 354 353 355 356 356 355 355 353 353 355 356 356 352 349 350 353 355 356 357 356 355 353 350 345 343 343 344 340 332 326 323 321 320 320 318 315 317 322 326
347 346 346 344 344 344 343 344 345 347 349 351 351 351 351 351 353 352 351 351 351 350 351 352 353 354 355 354 354 353 352 349 346 348 350 350 351 354 356 357 358 357 357 356 355 355 355 350 346 348 353 354 354 355 355 353 350 347 343 341 342 342 340 335 329 324 322 320 320 319 316 316 320 326
349 348 347 346 345 346 346 346 347 348 349 350 351 353 354 355 355 355 354 355 356 357 357 357 357 357 357 357 356 355 354 353 350 348 346 345 347 350 351 352 354 355 353 351 351 350 349 346 344 346 352 355 354 353 353 351 347 345 343 341 343 343 340 337 332 326 322 321 320 320 318 316 318 324
349 349 349 348 348 348 348 349 350 351 351 351 351 352 354 354 354 354 354 355 355 357 358 358 358 358 358 357 357 356 355 354 353 352 349 348 347 348 348 349 350 351 349 346 346 347 345 345 345 344 349 356 356 351 350 350 347 344 342 342 343 344 342 340 336 329 324 321 320 320 319 317 317 321
350 351 350 351 350 350 351 351 352 352 352 352 353 352 353 352 352 352 353 354 354 355 355 356 357 358 358 357 357 357 356 355 355 354 353 352 351 350 349 349 350 350 349 346 346 347 347 346 345 344 345 351 354 351 349 348 348 345 343 343 344 343 342 342 339 333 327 322 320 321 319 318 317 318
352 352 353 353 352 353 353 353 354 354 354 355 355 354 354 353 353 352 353 354 355 356 356 356 357 357 357 357 357 356 356 356 356 355 355 354 353 352 352 351 350 350 350 348 348 349 348 346 346 345 345 346 350 350 346 345 347 346 343 342 343 342 341 341 339 335 331 325 322 320 320 318 317 316
354 354 354 355 355 355 355 355 355 355 355 356 357 357 356 355 355 354 354 355 356 357 357 358 358 358 358 359 359 359 359 357 356 356 355 355 354 354 354 353 353 353 353 351 350 350 349 347 346 345 346 348 350 349 345 345 346 345 344 344 345 344 341 339 338 336 332 328 323 321 320 319 317 316
355 354 355 356 356 356 356 356 356 356 357 359 359 360 359 358 357 356 354 355 356 357 358 358 359 359 359 359 359 360 360 361 360 359 358 357 357 356 355 355 355 355 354 352 350 352 351 349 347 346 347 351 354 352 350 350 348 348 347 346 344 344 342 339 338 336 332 328 325 322 321 321 319 317
355 355 355 356 357 358 358 359 359 359 360 360 360 360 360 359 359 358 356 355 354 356 357 358 358 359 359 359 359 359 359 360 361 362 361 360 360 359 358 358 358 357 356 354 354 354 354 353 351 349 348 349 352 353 354 354 353 352 350 346 344 345 346 342 339 336 333 329 325 324 324 324 321 319
356 356 356 355 355 357 358 358 359 359 359 359 358 358 358 358 358 359 358 355 353 354 356 357 358 359 358 359 359 358 358 358 358 360 360 361 361 360 360 360 360 359 357 357 356 356 356 355 355 353 351 350 350 351 353 355 355 355 354 351 347 345 345 344 342 338 335 331 327 326 327 327 324 322
355 355 355 355 355 355 355 355 355 355 356 356 355 355 356 356 356 357 357 355 353 353 355 356 357 358 358 358 358 358 358 358 357 357 357 358 359 359 359 358 358 358 357 356 356 355 355 355 355 355 353 352 352 353 354 356 357 356 356 355 351 347 347 348 345 342 338 334 330 328 329 329 327 325
356 355 355 355 355 355 355 354 354 353 353 353 352 353 353 354 355 355 355 355 354 354 354 355 357 357 358 358 358 358 358 357 357 356 356 356 356 356 357 357 356 356 356 356 355 355 355 355 356 356 355 354 355 355 356 358 359 358 358 357 354 352 352 350 348 347 342 334 329 328 330 331 329 328
355 354 354 355 354 354 354 353 353 352 352 352 352 352 353 353 354 354 354 354 354 355 355 355 356 357 357 358 358 358 357 357 357 357 356 356 356 355 356 356 355 355 354 354 354 354 355 355 356 357 357 356 356 356 356 357 358 358 358 359 356 353 352 350 348 347 341 333 329 330 331 332 331 330
349 350 352 352 353 353 353 352 352 351 351 351 352 352 353 354 354 355 355 354 354 355 356 356 355 356 357 357 358 357 358 357 357 357 356 356 356 356 356 356 355 355 355 354 354 353 353 354 355 357 359 359 358 358 357 357 358 358 358 359 358 356 355 352 347 343 340 337 334 333 332 333 332 330
346 347 348 350 351 351 351 352 351 351 351 351 351 351 352 354 356 356 357 356 355 355 355 355 355 356 356 357 357 357 357 357 357 357 356 356 356 356 356 356 356 356 355 355 354 354 354 353 354 358 360 360 360 360 360 359 359 359 359 359 359 359 358 355 350 343 339 337 335 334 333 333 332 331
345 346 347 349 350 351 351 351 352 352 351 351 351 351 351 353 355 357 358 358 358 357 356 356 356 356 356 356 357 357 356 356 356 355 355 355 355 355 355 356 357 357 356 356 355 355 355 354 356 358 360 360 361 362 362 360 361 361 360 360 360 359 359 358 352 344 338 336 334 333 333 332 332 331
346 345 346 347 349 350 351 351 351 352 352 352 352 352 352 353 354 356 358 359 359 358 357 357 356 357 356 356 356 356 356 355 355 355 354 353 354 353 353 355 357 357 357 358 357 357 356 356 357 358 359 360 362 363 361 360 360 361 361 361 360 359 359 357 351 343 338 337 336 334 333 332 332 333
347 346 346 348 349 350 351 351 351 351 352 352 353 353 354 354 355 356 358 359 359 358 357 357 357 356 355 355 354 355 355 354 354 354 353 352 352 352 353 354 356 357 358 358 358 358 358 358 358 359 359 360 362 362 360 359 359 360 360 361 360 360 359 357 353 347 342 339 337 335 334 333 333 333
346 347 346 347 348 349 350 351 352 352 352 352 353 353 354 355 355 356 358 359 359 359 357 356 356 355 354 353 353 354 354 353 353 353 352 351 351 352 353 354 354 354 356 358 358 358 358 357 358 359 359 360 360 358 357 356 357 358 358 358 359 359 359 357 355 351 346 341 338 336 334 333 333 333
345 346 346 346 347 348 349 349 351 352 353 353 353 354 354 355 355 356 356 356 357 357 356 355 355 355 354 354 353 353 352 353 352 352 352 351 352 352 353 353 353 353 354 355 355 354 354 354 355 357 359 360 358 355 355 356 356 357 357 357 357 358 357 357 356 353 349 345 340 336 335 334 333 333
343 343 344 344 345 346 347 348 349 351 352 353 354 354 355 355 355 355 355 355 355 355 355 356 355 355 355 355 355 353 352 352 352 352 351 351 351 351 352 353 353 353 352 351 352 353 353 354 354 354 355 356 355 354 355 355 356 356 357 357 357 356 356 356 356 354 352 347 341 338 336 335 334 334
335 335 337 338 339 340 341 343 345 348 350 351 353 354 355 355 356 355 355 355 355 355 356 356 355 355 355 355 355 355 354 353 352 352 352 351 351 350 350 351 351 351 350 349 350 353 354 355 354 352 352 353 354 354 353 353 355 355 356 357 357 356 356 355 355 355 354 349 344 341 339 336 334 333
327 327 328 330 332 334 335 336 338 340 343 347 349 351 353 353 354 354 355 355 355 355 355 355 355 355 355 356 356 355 355 353 352 352 353 353 352 350 350 350 350 350 349 348 349 351 353 354 353 351 350 352 353 351 350 352 354 355 355 356 356 356 355 354 354 354 352 348 345 345 343 340 337 335
321 321 321 321 324 327 329 331 333 335 336 338 341 345 348 349 349 350 350 351 352 352 352 353 354 355 356 356 355 354 353 353 353 354 354 355 353 352 351 351 351 351 350 349 349 351 352 352 352 350 349 350 350 348 347 349 352 354 355 355 354 354 353 352 352 352 350 346 344 343 343 341 340 338
316 316 317 317 318 320 323 326 328 330 332 333 334 336 339 341 343 345 345 346 346 346 347 349 351 353 354 354 353 352 353 353 354 355 355 354 353 352 352 351 351 351 350 350 350 351 351 352 351 350 348 349 350 348 347 348 349 352 354 353 351 351 352 351 350 349 346 343 342 342 340 339 339 338
Wind_Speed
7 7 7 8 8 9 9 5 3 4 4 3 3 4 4 3 1 1 3 3 3 2 3 5 5 4 5 4 3 4 7 8 9 9 9 10 9 8 9 9 7 5 5 6 8 7 7 7 7 6 6 7 8 7 7 8 10 12 12 12 13 13 14 14 15 16 13 11 11 10 10 10 8 8
7 8 8 8 8 7 7 6 5 6 5 4 3 2 2 1 1 1 0 3 3 2 3 1 2 4 5 6 7 7 7 8 9 9 10 11 9 9 11 11 10 7 6 5 7 7 7 8 8 7 7 7 8 8 8 9 10 12 12 12 13 12 13 13 14 15 12 10 10 10 9 9 8 8
8 8 8 7 7 5 5 6 6 8 7 6 5 5 2 1 2 1 1 1 4 5 6 6 4 4 7 8 7 7 5 6 7 9 10 10 9 11 12 13 12 10 8 6 6 7 7 8 8 8 8 7 8 9 9 9 10 12 12 12 12 12 12 13 13 13 12 10 9 9 8 7 7 8
7 8 8 7 6 6 7 9 7 6 6 5 4 5 5 3 3 4 2 3 7 11 10 8 8 8 8 9 6 5 6 7 7 9 9 9 10 12 14 15 14 12 10 7 6 6 7 8 8 9 9 8 8 9 10 10 11 11 12 12 12 12 12 12 12 12 11 10 9 8 7 7 7 8
9 9 9 9 8 8 9 11 9 7 6 6 5 5 6 6 7 8 7 7 10 14 12 10 10 9 9 10 9 9 10 8 6 8 10 11 13 14 15 16 16 13 11 9 7 6 6 7 8 9 9 9 8 8 10 11 11 11 12 12 12 12 12 12 12 11 11 10 8 7 6 6 6 7
11 10 9 10 10 10 10 11 11 10 8 7 8 8 9 9 9 9 10 10 11 14 15 14 13 11 10 12 11 10 9 8 8 9 11 14 14 14 14 15 15 14 12 11 10 8 6 6 7 8 9 9 8 7 9 10 11 11 11 11 12 12 12 12 12 11 10 10 8 7 6 5 5 6
12 11 10 10 11 11 10 11 11 11 10 10 10 11 11 13 13 12 12 14 15 16 16 15 15 14 13 13 13 12 12 12 12 12 13 14 14 13 13 13 13 14 13 12 11 9 8 7 7 8 8 8 7 6 7 9 10 11 11 11 11 11 11 12 12 11 10 9 9 8 6 5 5 5
14 14 13 12 12 12 12 12 12 11 12 12 13 12 12 12 14 14 14 14 15 16 16 15 15 14 14 15 16 16 17 16 15 14 14 14 14 14 14 13 13 12 12 12 12 11 10 9 9 9 8 8 7 6 6 7 9 10 11 10 11 10 10 11 11 11 10 9 9 8 6 6 5 5
15 15 15 14 14 14 14 14 15 14 13 13 14 15 13 12 12 13 14 13 13 13 15 16 16 15 15 16 17 17 18 19 17 14 13 14 14 14 14 14 14 12 12 12 12 13 12 11 10 11 10 10 8 7 7 7 7 9 10 10 10 10 10 10 10 10 10 9 8 8 7 6 5 5
16 16 16 16 16 16 16 16 16 16 15 15 15 16 15 14 14 13 14 14 15 15 15 16 16 17 16 17 19 18 17 19 19 17 17 17 16 15 15 15 15 14 14 14 14 15 14 13 12 12 13 13 12 10 8 8 6 7 9 10 9 9 8 8 9 9 9 9 8 8 7 6 5 5
17 17 18 18 18 18 18 19 18 17 17 17 17 17 17 16 16 16 15 15 16 16 17 18 18 19 19 19 20 18 16 17 17 18 19 19 19 18 16 15 15 16 15 15 16 16 15 15 14 14 14 15 15 13 11 9 7 6 8 9 8 8 8 7 8 8 9 9 8 8 8 7 6 6
20 20 20 20 20 20 20 20 20 20 19 19 19 19 19 18 18 18 19 18 17 16 17 18 19 19 20 20 19 17 15 14 16 18 19 20 21 21 19 17 17 17 16 16 18 18 18 17 17 16 15 15 17 16 14 11 9 7 7 8 8 8 7 7 7 7 8 8 8 8 8 8 8 8
23 22 22 22 22 23 23 22 22 21 21 21 21 21 21 21 20 20 21 21 21 19 18 18 17 17 17 18 17 16 16 17 20 22 22 22 23 23 21 19 16 15 14 15 17 18 18 19 19 17 16 16 17 18 17 14 12 10 7 7 8 7 7 6 6 7 8 8 8 7 7 8 9 9
25 24 24 24 23 24 24 24 24 24 24 24 24 23 22 22 22 22 22 22 22 22 22 22 21 18 18 20 20 20 21 22 22 23 23 22 22 21 19 18 16 15 15 15 16 18 18 20 20 18 17 17 19 19 19 17 15 12 9 7 7 7 7 6 5 6 7 8 7 7 7 7 8 9
28 27 26 26 25 25 25 25 25 25 25 26 27 26 25 25 24 23 23 24 23 23 22 23 22 21 21 24 25 24 24 23 23 24 20 15 13 13 12 13 13 14 14 15 16 18 18 19 20 19 19 19 20 21 20 18 16 15 12 9 7 6 6 6 5 5 6 7 7 6 6 7 8 9
30 30 29 28 27 26 25 24 24 24 25 26 28 28 28 28 28 27 26 25 25 24 23 23 23 23 24 26 26 26 25 23 22 22 19 14 13 12 12 12 13 14 15 16 18 20 20 20 20 21 22 22 22 22 20 19 18 17 15 11 8 6 6 6 5 4 5 6 6 5 5 5 7 9
32 32 32 31 31 30 29 27 26 26 26 26 27 28 30 31 31 30 30 29 28 27 27 26 26 27 27 27 28 29 27 24 21 21 22 22 20 18 17 18 20 21 20 17 17 20 22 19 19 22 24 24 24 23 21 20 20 19 17 13 9 7 7 6 5 5 5 5 5 4 4 3 5 8
35 34 34 34 34 34 33 32 32 31 30 29 28 27 29 32 33 33 33 33 32 31 31 30 31 32 31 31 32 32 29 27 26 25 26 25 24 23 22 23 24 23 22 19 16 18 23 22 21 24 26 25 25 24 22 21 21 20 18 15 10 8 8 7 6 5 5 5 4 4 3 2 3 6
37 36 35 35 35 35 35 35 34 33 33 33 32 30 29 30 32 34 35 35 35 35 35 35 35 35 35 35 36 36 33 31 29 28 27 26 24 23 23 23 24 24 24 22 16 16 23 26 24 26 27 24 24 24 22 21 21 21 19 16 13 11 9 8 7 6 6 5 5 4 3 2 1 3
37 37 36 35 35 35 35 35 34 34 34 34 33 32 32 31 31 33 34 35 36 36 36 37 36 36 36 36 37 38 38 36 34 31 28 26 24 23 23 23 25 26 27 26 21 20 24 25 24 27 26 22 21 23 22 21 21 21 20 17 15 13 11 9 8 7 6 6 6 5 4 4 2 1
38 37 36 35 34 33 33 32 31 31 32 33 34 33 33 32 32 34 34 34 35 36 37 37 36 35 34 33 33 35 36 38 38 34 28 26 25 23 19 19 23 26 28 27 23 21 22 22 23 25 23 19 20 21 21 22 21 21 21 20 17 15 13 11 9 8 7 7 6 6 5 5 5 3
39 39 38 37 36 36 35 34 33 31 30 31 33 33 32 32 32 34 34 33 34 34 34 34 34 33 31 29 29 29 30 32 35 34 33 30 26 22 19 19 21 24 29 29 22 19 22 22 22 21 18 16 18 21 21 21 22 22 22 22 20 17 15 13 11 10 9 8 8 7 6 6 7 5
39 39 39 39 38 38 37 36 36 34 33 33 34 34 33 32 33 34 34 32 32 32 32 32 32 32 31 30 30 30 29 28 30 33 36 34 30 26 25 25 20 16 23 29 23 18 23 25 23 21 15 9 12 18 21 22 23 24 24 24 22 20 18 16 14 12 11 10 9 9 8 8 8 7
37 38 39 40 40 40 40 39 38 38 36 36 37 36 34 34 35 35 34 33 32 31 32 32 32 31 31 31 31 31 31 30 30 31 33 33 33 31 29 28 23 18 24 31 24 18 21 22 20 20 18 12 10 13 19 23 24 25 26 26 25 22 21 19 17 15 14 12 12 11 10 9 9 9
36 37 38 39 40 41 41 41 40 40 39 38 39 40 39 40 40 38 35 34 33 32 32 32 31 31 31 30 31 31 31 31 31 31 31 32 33 33 32 31 28 27 33 37 31 24 23 23 22 22 21 17 14 13 15 20 25 27 28 28 27 25 23 22 20 18 16 15 14 13 12 11 11 10
33 34 36 37 39 39 39 39 38 38 37 37 39 41 43 44 43 41 39 37 34 32 31 31 30 30 30 30 30 30 31 31 31 31 32 32 32 33 34 34 32 33 35 37 34 30 26 25 26 25 23 21 18 14 14 17 22 26 28 29 29 27 26 24 23 21 20 18 16 15 14 13 13 12
33 34 34 35 37 38 37 37 37 37 36 36 38 40 42 43 43 42 41 39 35 33 30 28 28 29 28 28 28 28 30 31 32 32 33 33 33 33 34 35 35 36 36 34 33 32 30 27 27 26 25 23 18 13 13 15 17 21 26 29 29 29 28 28 26 24 22 20 18 17 17 16 15 14
35 36 34 33 33 34 35 36 35 35 35 35 35 36 37 39 40 41 41 40 36 33 30 28 28 29 28 28 27 27 27 27 29 31 33 33 33 33 34 35 34 34 33 31 31 33 33 31 30 29 27 25 19 15 15 15 16 18 22 25 28 30 31 30 29 28 25 23 22 22 21 20 18 17
34 36 36 33 30 28 29 31 32 34 35 35 34 33 33 33 34 37 39 38 35 32 31 30 30 30 30 29 29 29 27 26 26 27 30 31 33 33 34 35 35 34 34 33 33 34 35 35 35 34 32 30 28 25 23 21 19 20 21 23 26 28 30 32 32 31 29 28 27 26 25 23 21 20
32 35 37 37 35 32 30 29 30 32 33 32 32 32 31 30 30 31 34 35 33 32 32 32 31 31 30 29 30 29 29 29 28 27 28 29 30 31 32 33 35 36 35 35 35 35 36 36 36 36 35 34 33 33 32 29 25 23 23 25 24 22 25 31 34 34 33 32 31 29 27 24 22 21
28 29 31 33 35 36 37 37 37 37 36 35 33 33 32 31 31 30 31 31 31 32 33 32 31 31 29 28 28 28 28 30 31 30 30 30 30 30 29 29 31 33 33 33 33 33 34 36 36 35 35 34 34 34 34 32 29 26 25 26 26 23 24 28 32 35 36 35 33 31 29 27 26 24
23 24 25 26 28 29 32 34 34 35 37 36 35 33 33 33 34 34 33 32 32 32 33 32 31 29 28 27 28 28 28 29 29 29 30 31 33 33 31 29 29 29 29 30 32 33 33 34 35 36 37 36 36 36 33 30 30 29 28 28 29 30 29 28 30 34 36 35 35 35 33 31 30 28
24 25 25 25 26 25 25 25 26 26 27 29 29 29 29 30 32 33 34 35 35 35 34 34 33 31 29 28 27 25 25 26 26 26 27 29 31 31 31 31 31 30 29 30 32 33 33 33 34 35 37 38 38 38 34 29 29 31 31 29 29 31 31 32 32 32 34 35 36 36 35 34 34 32
28 29 28 26 25 24 23 23 23 23 22 22 23 24 25 27 29 30 32 34 35 35 34 34 34 32 30 28 25 23 25 26 24 23 24 26 27 28 29 30 32 32 31 31 33 34 36 36 34 33 35 37 38 39 38 34 31 32 33 32 31 31 33 33 33 33 34 37 38 36 36 38 38 36
30 29 26 26 25 24 23 24 23 22 21 20 21 21 23 24 26 28 31 32 32 33 33 33 33 32 31 30 29 28 28 25 21 20 22 24 26 27 28 30 32 33 32 32 34 36 37 37 35 31 28 29 29 31 36 39 37 34 32 32 33 33 33 33 34 34 34 36 38 36 34 36 39 40
29 27 24 25 26 25 25 26 25 23 21 20 19 20 22 23 24 26 28 30 31 31 31 31 32 33 34 34 33 30 27 22 20 24 26 26 26 27 28 30 33 33 33 34 37 37 36 36 34 28 22 19 16 16 26 37 41 38 34 32 33 34 34 33 33 33 35 37 38 37 34 34 38 40
28 26 24 25 27 25 25 26 25 23 22 20 19 20 22 24 24 24 24 24 26 29 30 30 31 32 32 30 27 25 22 21 25 31 32 29 25 24 24 27 30 32 34 37 39 39 37 34 34 30 22 13 8 10 19 29 34 36 37 35 34 34 34 31 30 32 36 38 39 40 39 37 37 40
28 27 25 25 27 26 27 27 26 25 24 21 20 22 23 25 25 24 21 18 19 23 26 27 28 28 26 22 21 21 21 23 29 33 32 27 22 22 24 26 28 30 34 37 39 39 35 31 31 31 24 14 9 11 15 17 22 30 37 38 37 36 33 31 31 33 36 38 40 42 43 39 37 38
26 27 26 26 26 26 26 26 26 27 27 25 25 25 26 27 27 26 25 25 26 26 25 25 25 25 21 20 20 22 23 25 29 30 29 26 25 26 28 29 28 28 29 32 36 36 33 31 31 31 29 25 19 15 14 14 19 27 33 36 38 38 36 35 35 35 35 36 38 38 37 35 34 33
24 24 24 24 25 25 25 25 26 26 27 26 26 27 28 29 29 29 29 31 32 30 26 24 23 21 19 21 23 24 26 29 30 29 29 30 31 30 29 28 27 27 28 31 33 32 33 36 37 38 37 32 24 21 23 24 25 27 30 32 35 37 38 38 37 35 35 36 35 33 31 30 30 27
20 20 20 20 21 22 22 23 24 25 26 27 27 28 28 29 29 30 31 32 31 28 25 23 21 18 18 20 23 25 29 32 32 31 32 33 31 29 27 26 26 24 24 27 31 35 39 43 44 43 37 28 22 23 24 22 22 26 30 32 33 34 36 38 39 37 36 36 34 32 31 31 30 27
20 20 20 20 19 19 19 19 19 19 21 23 25 26 27 27 27 26 26 26 24 23 23 22 21 20 20 22 24 27 31 33 32 31 30 28 26 25 25 26 26 24 23 28 37 43 46 47 44 36 26 22 25 25 20 17 22 28 29 30 32 33 33 35 38 38 38 37 36 33 31 27 21 19
22 23 23 23 23 23 22 20 19 18 17 17 18 18 18 19 18 19 19 19 19 20 21 22 21 21 22 25 27 29 32 33 30 25 21 20 23 26 27 26 27 29 32 38 45 47 46 44 39 26 15 18 26 26 23 24 28 29 28 29 31 31 30 32 36 40 39 37 36 37 37 32 24 21
23 23 25 25 26 26 25 24 22 21 20 20 18 17 16 14 13 13 13 13 14 16 18 19 20 21 24 26 26 28 31 29 23 18 18 20 25 29 30 30 30 32 35 38 40 41 39 34 26 16 14 21 25 24 25 30 31 31 32 31 29 30 31 31 34 39 39 35 33 35 38 39 36 35
24 24 25 25 25 25 25 25 24 23 23 22 21 20 19 17 15 14 12 11 10 9 9 9 12 17 22 25 26 28 28 24 20 19 20 23 26 29 31 32 31 32 34 34 33 33 31 24 18 16 21 26 28 28 32 35 34 33 33 31 29 33 34 33 34 38 37 33 32 33 34 37 41 41
Wind_Direction
242 241 251 271 275 279 295 312 344 356 0 14 29 35 44 67 106 19 331 318 352 73 153 192 216 242 249 243 242 236 239 250 255 268 301 319 311 299 306 316 322 325 338 1 8 3 356 348 343 346 359 13 16 13 15 10 3 2 4 4 2 2 4 5 9 15 22 36 46 52 54 55 50 37
237 241 250 266 270 279 290 288 309 324 315 308 299 291 350 337 203 127 34 291 310 11 50 35 268 268 274 270 264 258 255 248 248 273 302 311 309 299 296 300 304 309 315 339 359 1 358 351 345 346 353 9 18 17 16 12 6 6 7 6 3 4 6 8 12 19 27 39 46 51 56 58 53 37
232 244 259 264 252 260 279 276 299 307 282 274 272 246 241 287 248 246 62 286 291 317 350 355 324 303 314 308 275 248 254 264 266 282 297 307 309 298 291 290 291 297 300 314 342 353 358 355 351 351 352 2 15 18 17 13 7 7 8 6 4 5 6 9 13 20 28 38 46 50 53 52 45 35
233 244 252 257 245 240 253 259 281 298 262 246 251 235 228 239 258 270 276 251 274 296 319 324 305 301 316 322 302 265 281 294 289 286 292 305 308 298 291 288 285 288 292 295 316 338 351 356 355 354 352 357 10 17 17 15 8 6 7 6 4 4 6 8 12 19 28 36 43 48 50 45 37 33
239 251 248 251 253 249 253 253 262 276 260 240 238 236 242 257 263 264 263 263 278 292 302 307 304 305 314 316 307 299 297 289 283 287 290 298 303 299 293 288 282 282 286 288 297 318 336 349 354 354 352 354 5 16 17 15 11 6 6 7 4 4 5 6 9 15 25 34 39 42 44 40 31 29
238 250 250 248 250 252 256 253 252 257 258 251 243 242 244 247 251 252 253 256 267 280 290 298 301 300 306 307 304 308 307 296 294 295 291 293 296 297 294 289 282 278 280 284 286 297 313 328 341 345 349 353 1 13 14 12 11 6 6 7 6 4 4 5 7 10 19 30 35 34 36 35 25 22
241 246 251 252 247 246 250 253 254 251 250 253 254 255 250 243 244 246 248 252 255 260 271 283 290 290 293 294 293 297 298 295 293 289 289 289 284 285 291 290 283 276 278 281 279 285 299 309 319 325 335 345 348 353 2 6 7 6 8 8 6 5 3 4 6 6 11 22 29 29 29 32 23 16
244 244 247 250 248 247 245 248 254 253 249 252 258 269 268 255 251 249 247 255 259 258 263 272 280 283 286 290 294 297 297 297 295 287 289 291 283 282 289 287 280 275 277 278 275 278 290 297 302 306 309 320 327 326 337 355 1 2 8 8 4 3 2 3 6 5 5 13 21 22 24 32 30 17
245 244 246 247 246 247 247 246 249 251 251 253 259 268 272 269 265 259 256 264 269 265 265 272 278 283 289 295 297 298 297 297 297 289 285 290 288 285 287 282 273 271 273 274 274 278 285 289 292 296 295 294 302 307 316 335 350 358 6 8 2 359 359 2 4 3 4 8 14 14 13 21 27 18
246 245 247 249 248 247 248 248 248 248 249 252 255 260 264 268 273 273 271 272 274 271 269 273 280 285 289 292 293 297 298 295 293 288 284 284 282 281 286 282 270 266 271 276 279 281 284 284 285 290 291 287 288 292 301 314 326 346 1 5 0 354 353 358 0 0 2 4 8 11 9 10 17 16
247 247 248 251 251 250 250 250 250 250 250 252 254 255 257 259 264 270 272 269 270 271 271 271 274 277 281 283 287 295 299 295 290 285 281 279 279 283 287 282 270 263 264 272 278 279 277 275 274 278 283 284 283 282 286 296 302 323 351 359 357 349 346 350 356 357 358 0 4 9 12 13 19 23
243 247 249 251 251 251 251 251 250 250 249 249 251 253 254 253 254 259 264 265 265 266 267 266 266 269 273 275 279 284 285 285 286 284 281 278 282 287 287 282 274 266 264 270 274 273 271 270 269 270 273 278 280 278 277 282 284 293 327 350 352 342 337 341 350 353 352 354 2 9 14 19 27 32
244 246 248 250 252 253 253 253 251 250 248 246 246 247 248 248 248 251 257 260 259 257 259 263 266 268 269 269 271 273 274 280 285 287 285 281 281 283 281 278 271 267 275 280 275 274 274 271 269 269 272 277 278 276 275 275 275 276 295 332 345 335 328 333 342 347 346 349 359 9 15 22 29 35
245 246 247 248 251 254 257 257 255 253 251 248 247 245 244 244 244 245 249 253 254 252 253 256 260 263 265 268 270 272 276 280 282 285 286 284 282 280 275 272 268 269 279 281 279 284 283 275 268 265 271 279 279 276 276 274 270 266 273 305 330 326 318 322 331 336 338 344 355 8 18 22 27 33
244 246 247 248 249 252 255 257 259 260 258 255 252 249 245 244 244 243 244 247 250 250 250 252 254 255 259 265 268 270 273 274 276 279 281 281 282 277 270 270 270 269 274 277 281 288 288 281 274 270 275 281 281 280 280 274 266 261 262 282 310 313 306 308 314 320 327 336 349 3 16 19 21 28
244 245 246 248 250 251 253 256 260 263 263 260 257 254 249 245 244 244 244 246 247 247 248 249 251 252 256 261 264 266 267 268 271 274 272 273 277 274 265 264 270 281 289 288 283 284 285 281 276 275 280 283 283 284 282 272 262 257 256 265 285 296 293 291 294 300 311 324 339 354 8 17 21 27
246 246 247 248 249 251 253 256 260 263 265 266 263 259 253 248 245 245 246 248 249 250 250 249 251 255 257 258 261 264 264 263 264 267 269 274 276 274 272 274 281 292 296 290 281 280 281 279 271 273 281 284 282 283 280 270 260 255 252 254 268 280 278 277 282 286 292 305 323 341 355 12 24 31
246 247 248 249 251 252 253 255 257 260 263 267 269 266 259 252 249 247 247 248 249 250 251 250 253 257 258 258 262 266 265 261 261 263 267 270 271 272 276 280 285 290 288 283 278 276 280 283 278 276 281 281 278 279 279 270 259 251 248 248 255 267 266 264 271 277 280 289 305 321 330 345 28 40
246 248 249 251 253 255 256 256 256 257 259 261 265 267 266 262 257 253 251 250 251 251 252 253 255 259 261 261 263 265 264 261 261 263 265 269 273 276 279 281 282 282 280 278 270 267 279 285 283 282 285 282 275 274 274 268 257 248 245 244 247 257 260 257 262 270 273 277 289 303 298 280 341 45
245 247 249 251 253 254 255 256 256 257 257 257 258 260 263 264 263 260 259 258 257 256 256 257 259 262 266 267 268 268 266 262 261 263 266 269 273 276 277 276 276 276 276 275 268 264 275 283 283 284 286 278 269 267 267 263 254 244 239 238 241 249 253 253 256 260 263 266 274 283 282 266 260 6
245 246 246 248 251 253 254 255 256 256 255 254 254 254 257 260 261 262 263 262 261 260 260 260 262 266 270 273 273 273 271 267 264 261 262 267 270 271 271 268 270 273 275 278 274 264 265 276 282 285 284 274 262 260 261 258 250 239 234 232 236 243 248 249 252 254 251 253 258 266 271 261 250 255
244 245 246 247 249 252 255 257 258 258 255 253 252 252 253 254 255 258 260 260 259 259 260 261 263 266 269 270 271 272 272 271 266 259 257 261 264 264 264 264 269 275 275 276 273 259 259 271 278 281 282 270 256 251 252 252 245 235 229 228 230 236 241 243 247 248 244 243 247 253 261 259 249 245
244 245 246 247 248 251 254 256 257 258 257 255 253 252 251 250 251 254 257 256 256 256 257 259 261 263 266 269 270 271 270 270 267 262 259 259 256 256 259 262 266 273 274 274 270 259 263 272 274 272 270 262 253 249 244 243 242 235 229 229 230 232 236 238 241 241 237 234 237 242 248 254 253 246
246 246 247 248 249 250 252 253 255 256 256 256 255 253 250 249 251 254 255 255 255 255 256 259 261 263 267 270 271 272 272 271 268 265 263 260 256 252 253 257 258 257 265 271 270 263 267 273 274 272 267 259 257 252 241 237 237 233 230 231 232 232 232 235 237 237 233 229 230 234 237 240 245 245
248 247 247 248 250 252 253 254 255 256 257 257 257 254 252 252 255 257 256 256 257 256 257 259 260 262 265 268 269 271 272 272 270 268 266 264 260 255 251 251 252 253 263 271 270 264 264 267 269 273 272 264 259 257 245 236 233 232 232 232 233 233 233 235 236 235 232 227 226 229 230 232 235 238
251 250 249 250 252 254 256 257 258 260 261 260 259 258 257 257 258 258 258 258 258 256 256 256 258 260 263 266 268 269 270 270 271 269 267 266 264 261 257 254 251 253 265 276 275 266 262 263 265 267 267 266 262 253 241 235 233 232 230 231 233 234 234 236 235 234 232 228 224 224 225 226 229 230
251 252 254 256 256 256 257 258 260 262 264 263 262 261 261 261 261 261 260 259 258 256 255 255 256 259 262 265 267 267 268 269 269 268 268 267 266 265 264 263 259 259 267 277 277 269 262 260 262 262 261 265 264 244 230 235 236 232 229 231 234 235 234 234 234 234 233 229 223 221 221 220 222 224
252 252 254 258 260 259 258 259 260 261 261 261 261 262 263 263 263 262 260 259 258 257 255 254 254 255 258 261 264 266 269 272 271 269 268 267 266 266 266 267 267 267 270 273 274 271 265 259 259 259 257 259 259 249 242 241 240 239 236 230 230 232 233 233 232 232 231 227 221 218 218 218 217 217
255 253 251 253 256 258 257 256 257 256 256 258 261 263 265 265 264 263 261 259 258 257 255 253 253 254 255 258 261 265 269 272 273 271 268 265 264 263 264 265 266 266 267 267 268 268 266 261 261 261 258 256 255 255 256 252 247 247 241 230 229 234 236 233 232 231 228 225 222 219 221 221 218 216
260 259 257 256 256 258 258 258 258 258 258 260 263 264 266 267 268 268 265 261 257 255 255 254 253 254 257 258 261 264 266 267 268 269 269 267 263 260 258 259 260 261 262 264 264 266 265 263 263 260 256 255 256 255 255 254 251 248 243 236 233 235 235 233 233 231 228 226 223 223 224 225 222 221
268 266 266 265 264 263 263 264 265 265 264 265 265 265 266 266 268 271 273 268 260 255 255 256 256 257 258 259 260 261 262 263 265 266 268 268 267 264 262 260 259 261 263 264 264 264 264 264 263 259 253 252 253 254 254 253 249 246 244 239 234 235 238 236 232 231 230 227 225 225 225 225 224 223
282 277 274 271 269 268 269 271 272 271 269 268 269 269 269 269 270 271 274 273 266 258 254 254 255 256 255 255 256 257 258 261 264 266 267 268 268 269 268 265 264 264 265 266 265 264 263 261 260 258 254 251 250 252 252 251 248 247 247 242 237 237 241 239 235 233 229 224 223 225 226 225 224 223
290 289 284 278 272 271 274 278 280 278 275 274 272 271 270 270 270 271 270 267 264 260 255 251 250 251 251 252 253 255 257 260 263 266 267 268 269 270 268 267 266 265 264 264 265 265 265 263 260 258 256 254 253 252 249 247 247 248 247 245 239 236 236 239 238 234 224 218 219 223 225 226 226 224
283 283 282 280 275 272 272 273 275 277 278 276 274 273 271 267 265 265 263 261 259 258 255 251 249 248 249 250 251 251 254 258 261 263 265 267 268 268 266 266 267 266 263 262 261 261 262 264 263 259 255 253 253 251 248 245 246 247 247 245 241 238 239 239 237 230 223 219 218 218 221 224 225 224
278 274 272 272 271 269 266 265 266 267 268 270 274 276 274 270 264 258 255 255 255 253 251 250 248 247 246 245 244 244 246 249 254 258 261 261 260 259 259 260 262 263 261 260 258 257 256 257 258 256 250 247 249 250 248 244 243 244 244 243 243 243 243 241 235 229 224 219 215 213 216 220 222 224
280 275 268 265 266 265 262 260 260 259 259 263 271 274 271 269 265 260 257 256 253 248 247 247 245 244 243 242 241 240 239 237 242 248 249 246 245 247 250 252 255 258 258 257 257 256 254 252 250 245 239 236 239 245 245 242 240 239 238 239 241 243 242 241 235 227 221 217 212 211 213 217 220 222
282 280 272 266 265 264 264 266 266 264 261 261 263 264 264 265 265 265 265 261 252 246 244 244 243 244 246 246 246 244 238 236 242 247 247 244 241 243 247 250 252 254 253 254 256 255 252 248 244 238 234 233 231 241 246 243 239 236 235 236 239 241 240 237 229 223 220 218 216 215 217 220 222 224
282 279 275 270 268 266 266 268 269 268 266 263 258 258 261 264 264 264 262 258 253 249 244 241 242 245 247 247 248 244 238 238 243 247 249 248 245 244 246 248 250 252 253 254 254 252 249 247 244 239 234 233 237 246 250 244 234 233 235 235 235 238 237 231 225 223 222 220 220 222 223 223 225 227
291 283 276 272 271 269 267 267 267 267 265 262 258 256 258 260 261 260 258 257 259 259 257 253 253 252 246 241 241 241 237 234 236 240 246 248 246 244 244 246 251 257 258 256 255 252 248 246 245 243 239 238 241 252 267 266 251 245 244 241 236 235 233 229 226 225 224 222 221 222 222 223 228 232
306 298 290 283 279 275 272 270 268 267 266 263 259 256 255 255 256 258 260 262 263 264 265 264 262 257 250 242 240 239 237 236 235 236 239 242 242 242 242 246 252 256 257 257 257 256 251 249 249 248 245 242 245 256 266 269 264 256 251 247 242 238 235 234 230 226 225 225 220 216 216 219 224 228
318 315 311 306 299 292 286 280 275 271 269 267 264 260 257 256 254 254 257 260 262 264 267 267 262 254 249 246 241 236 236 238 238 236 236 239 242 243 243 247 250 252 256 260 261 260 258 258 259 257 251 246 250 256 258 259 259 254 248 247 247 243 239 238 236 232 231 227 217 209 211 215 218 220
326 324 322 320 318 316 311 304 296 287 279 274 270 267 265 262 258 255 255 256 258 261 266 268 265 256 249 244 241 238 238 238 235 232 235 243 248 248 247 247 246 248 253 258 260 260 262 264 266 264 254 245 246 248 246 245 249 252 251 251 250 246 239 236 235 235 234 228 218 212 211 208 205 211
325 324 320 316 314 315 315 315 313 308 301 291 282 275 272 271 268 266 265 264 265 266 266 266 263 253 240 235 234 235 237 236 231 231 240 252 254 252 249 246 244 244 246 250 256 260 263 265 267 267 258 246 242 240 243 249 252 253 253 252 251 249 242 235 231 231 232 231 228 227 225 218 209 212
322 321 319 317 313 310 309 310 310 310 309 306 299 289 280 275 272 271 271 269 269 270 267 263 257 245 233 229 229 230 232 235 239 248 258 259 255 252 250 246 244 242 242 246 253 259 263 267 271 270 261 254 246 238 241 249 250 249 249 249 248 246 241 232 225 225 227 228 229 231 231 228 227 229
322 319 317 316 314 311 308 306 306 306 306 307 306 302 294 285 276 271 268 266 268 272 272 266 254 240 232 229 228 230 235 245 256 262 261 256 252 250 249 248 246 244 245 247 251 258 265 271 272 262 254 251 247 242 243 247 248 247 247 245 242 240 237 231 224 220 218 219 222 224 224 224 225 228